[ hide orbit diagram ]
For accurate long-term ephemerides, please instead use our Horizons system.This orbit viewer was implemented using two-body methods, and hence should not be used for determining accurate long-term trajectories (over several years or decades) or planetary encounter circumstances.
Orbital Elements at Epoch 2459000.5 (2020-May-31.0) TDB
Reference: JPL 19 (heliocentric ecliptic J2000)
Element | Value | Uncertainty (1-sigma) | Units |
e | .1717527031314664 | 6.4e-08 | |
a | 2.974099356841104 | 3.4604e-08 | au |
q | 2.463289752922088 | 1.9085e-07 | au |
i | 9.080053585013987 | 5.6519e-06 | deg |
node | 264.1488016292686 | 4.5388e-05 | deg |
peri | 153.3735837653304 | 5.0934e-05 | deg |
M | 94.56692728699522 | 2.1771e-05 | deg |
tp | 2458508.382948068016 (2019-Jan-24.88294807) | 0.0001117 | TDB |
period | 1873.404833783548 5.13 | 3.2696e-05 8.952e-08 | d yr |
n | .1921634841055364 | 3.3538e-09 | deg/d |
Q | 3.484908960760119 | 4.0548e-08 | au |
|
| | Orbit Determination Parameters
Additional Information
|
[ show covariance matrix ]
Physical Parameter Table
Parameter |
Symbol |
Value |
Units |
Sigma |
Reference |
Notes |
absolute magnitude |
H |
16.1 |
|
n/a |
MPO471886 |
|
diameter |
diameter |
4.309 |
km |
1.596 |
urn:nasa:pds:neowise_diameters_albedos::2.0[mainbelt] (http://adsabs.harvard.edu/abs/2011ApJ...741...68M) |
|
geometric albedo |
albedo |
0.050 |
|
0.030 |
urn:nasa:pds:neowise_diameters_albedos::2.0[mainbelt] (http://adsabs.harvard.edu/abs/2011ApJ...741...68M) |
|
|
379058 (2008 WG64) Discovered 2008-Nov-18 by CSS at Catalina |
Reference: | Last Updated: 2013-11-20 |
|
[ show close-approach data ]
|